[[{"header":{"parameterUnit":"m.s-1","parameterCategory":1,"la1":30.2991,"la2":30.254,"lo1":-89.0895,"lo2":-89.0444,"dy":0.0017,"dx":0.0017,"nx":28,"ny":28,"refTime":"2024-04-12T21:00:00:Z","depth":0,"parameterNumber":2,"parameterNumberName":"U-component_of_WINDS"},"data":[0,0,0,0,0,0,0,0,0,0,0,0,0,0,0,0,0,0,0,0,0,0,0,0,0,0,0,0,0,0,0,0,0,0,0,0,0,0,0,0,0,0,0,0,0,0,0,0,0,0,0,0,0,0,0,0,0,0,0.3315,0.3316,0,0.3398,0.3399,0.34,0.3444,0.3444,0.3444,0.3445,0.3529,0.3531,0.3533,0,0,0,0,0,0,0,0,0,0,0,0,0,0.3193,0.3195,0.3315,0.3316,0.3317,0.3398,0.3399,0.34,0.3444,0.3444,0.3444,0.3445,0.3528,0.3531,0.3534,0,0,0,0,0,0,0,0,0,0,0,0,0,0.3258,0.3196,0.3315,0.3349,0.3353,0.3398,0.3399,0.34,0.3444,0.3444,0.3445,0.3445,0.3528,0.3531,0.3534,0.3551,0,0,0.3544,0.3545,0,0,0,0,0,0,0,0,0.3254,0.3262,0.3343,0.3347,0.3351,0.3411,0.3387,0.3451,0.3444,0.3409,0.3445,0.3445,0.349,0.3496,0.3511,0.3555,0.3559,0.3544,0.3546,0.3547,0.3548,0,0,0,0,0,0,0,0.325,0.3259,0.3348,0.3344,0.3349,0.3359,0.3369,0.3399,0.3448,0.3413,0.3416,0.3425,0.3492,0.3508,0.3514,0.356,0.3544,0.3547,0.3549,0.355,0.362,0.362,0,0,0,0,0,0,0.324,0.3255,0.3345,0.335,0.3302,0.3361,0.3372,0.3392,0.3448,0.3456,0.3425,0.3427,0.3502,0.351,0.3517,0.354,0.3547,0.355,0.3552,0.362,0.362,0.362,0,0,0,0,0,0,0.3237,0.3247,0.3342,0.3304,0.3316,0.3363,0.3385,0.3393,0.3409,0.3457,0.3466,0.3433,0.3503,0.3512,0.3542,0.3543,0.3552,0.3555,0.362,0.362,0.362,0.3586,0,0,0,0,0,0,0.3233,0.3246,0.3254,0.3303,0.3318,0.3366,0.3385,0.3395,0.3415,0.3418,0.3466,0.3475,0.3504,0.3537,0.3545,0.3548,0.3557,0.362,0.362,0.362,0.3587,0.3585,0.3583,0,0,0,0,0,0.3229,0.3241,0.3254,0.3265,0.3329,0.3366,0.3375,0.3408,0.3415,0.3422,0.3453,0.3473,0.3541,0.3539,0.3549,0.3553,0.3621,0.362,0.362,0.3588,0.3585,0.3583,0,0,0,0,0,0,0.3191,0.3248,0.3263,0.3292,0.3324,0.3373,0.3384,0.3404,0.3434,0.3436,0.3476,0.3486,0.3512,0.3535,0.3532,0.3572,0.3583,0.3585,0.3555,0.3553,0.3551,0.3544,0.356,0,0,0,0,0,0.3185,0.3211,0.326,0.3281,0.3296,0.3337,0.3355,0.3377,0.3412,0.3425,0.3458,0.349,0.3519,0.3537,0.3567,0.359,0.3601,0.3598,0.3595,0.3593,0.3594,0.3607,0.3606,0.3619,0.3619,0.3619,0,0,0.3175,0.321,0.3224,0.3274,0.3301,0.3326,0.3348,0.3374,0.3393,0.343,0.3459,0.3484,0.3523,0.3549,0.3563,0.357,0.3593,0.3593,0.3591,0.3593,0.3607,0.3606,0.3604,0.3619,0.3619,0.3619,0,0,0.317,0.3199,0.3219,0.3245,0.3286,0.3313,0.3318,0.3364,0.3382,0.3412,0.344,0.3462,0.3511,0.3537,0.3557,0.3558,0.3578,0.3567,0.3555,0.3567,0.3566,0.3565,0.3565,0.3565,0.3568,0.3568,0.3568,0,0.3152,0.3192,0.3226,0.3251,0.3271,0.3305,0.3324,0.3348,0.3396,0.341,0.3417,0.3478,0.3506,0.3538,0.3539,0.3554,0.3559,0.3562,0.3563,0.3563,0.3563,0.3563,0.3563,0.3566,0.3566,0.3566,0.3566,0,0.3167,0.3194,0.3205,0.325,0.3272,0.3294,0.3331,0.3349,0.3369,0.3395,0.3424,0.3459,0.3496,0.3505,0.3525,0.354,0.3543,0.3556,0.3568,0.3559,0.356,0.3561,0.3564,0.3564,0.3565,0.3565,0,0,0.3141,0.3204,0.3208,0.3228,0.3274,0.3296,0.3318,0.3353,0.3367,0.3399,0.3418,0.3458,0.347,0.3492,0.3515,0.3526,0.3523,0.3538,0.3539,0.3533,0.354,0.353,0.3529,0.3536,0.3536,0.3537,0.3537,0,0.3142,0.3185,0.3216,0.3246,0.3271,0.3302,0.3321,0.3351,0.3375,0.3399,0.3426,0.3453,0.3467,0.348,0.3492,0.3521,0.3525,0.3522,0.3554,0.3555,0.3543,0.353,0.3519,0.3518,0.3537,0.3537,0.3537,0,0.3149,0.3179,0.3212,0.3254,0.3266,0.3283,0.3316,0.3339,0.3373,0.339,0.3413,0.3437,0.3461,0.347,0.3503,0.35,0.3515,0.3531,0.3531,0.3536,0.3546,0.3533,0.3518,0.3518,0.3538,0.3538,0.3538,0,0.3126,0.3174,0.32,0.3216,0.3267,0.3278,0.3299,0.3334,0.3352,0.3381,0.3393,0.3425,0.3442,0.3465,0.3496,0.3501,0.3526,0.3538,0.354,0.3539,0.3544,0.3543,0.353,0.3553,0.3553,0.3553,0.3553,0,0.3124,0.3142,0.319,0.3206,0.3227,0.3262,0.3282,0.3306,0.3335,0.3356,0.3384,0.3402,0.3442,0.3464,0.3488,0.3511,0.3519,0.3533,0.3539,0.353,0.3528,0.3541,0.3541,0.3553,0.3553,0.3553,0.3553,0,0.3102,0.3135,0.3165,0.3209,0.3221,0.3234,0.3272,0.3288,0.3313,0.3338,0.3346,0.3385,0.3413,0.3446,0.3485,0.3501,0.3521,0.3531,0.351,0.3513,0.3513,0.3512,0.3507,0.3508,0.353,0.353,0.353,0,0.3098,0.3113,0.3159,0.3175,0.3195,0.322,0.3239,0.3273,0.3291,0.333,0.3341,0.337,0.3396,0.3439,0.347,0.35,0.351,0.3506,0.3514,0.3505,0.3509,0.3508,0.3509,0.3504,0.3503,0.3503,0.3503,0,0.3088,0.3103,0.313,0.3161,0.3182,0.3209,0.3236,0.3247,0.3286,0.3305,0.3334,0.3354,0.3392,0.3421,0.3454,0.3475,0.3495,0.35,0.3501,0.3493,0.348,0.3486,0.3503,0.35,0.35,0.35,0.3501,0.3501,0.3075,0.309,0.3124,0.3151,0.3175,0.32,0.3217,0.3243,0.3268,0.3302,0.332,0.3348,0.338,0.3426,0.3446,0.3468,0.3475,0.3478,0.3478,0.3478,0.3475,0.3476,0.3474,0.3474,0.3474,0.3474,0.3474,0,0.3066,0.3089,0.3114,0.3152,0.3173,0.3189,0.322,0.3237,0.3261,0.3289,0.3313,0.3345,0.3373,0.3406,0.3435,0.3446,0.3455,0.3452,0.3452,0.3456,0.3468,0.3463,0.3444,0.3444,0.3444,0.3444,0.3444,0.3444,0.3064,0.3089,0.3107,0.3143,0.3166,0.3194,0.321,0.3232,0.3254,0.3289,0.3312,0.3333,0.3362,0.3394,0.3419,0.3428,0.3437,0.3431,0.3443,0.3453,0.3456,0.3458,0.3454,0.3433,0.3433,0.3429,0.3429,0.3429]},{"header":{"parameterUnit":"m.s-1","parameterCategory":1,"la1":30.2991,"la2":30.254,"lo1":-89.0895,"lo2":-89.0444,"dy":0.0017,"dx":0.0017,"nx":28,"ny":28,"refTime":"2024-04-12T21:00:00:Z","depth":0,"parameterNumber":3,"parameterNumberName":"V-component_of_WINDS"},"data":[0,0,0,0,0,0,0,0,0,0,0,0,0,0,0,0,0,0,0,0,0,0,0,0,0,0,0,0,0,0,0,0,0,0,0,0,0,0,0,0,0,0,0,0,0,0,0,0,0,0,0,0,0,0,0,0,0,0,4.1232,4.1232,0,4.1218,4.1218,4.1218,4.1221,4.1221,4.1221,4.1222,4.1203,4.1203,4.1202,0,0,0,0,0,0,0,0,0,0,0,0,0,4.126,4.126,4.1232,4.1232,4.1232,4.1218,4.1218,4.1218,4.1221,4.1221,4.1221,4.1222,4.1204,4.1203,4.1202,0,0,0,0,0,0,0,0,0,0,0,0,0,4.1247,4.126,4.1232,4.1232,4.1232,4.1218,4.1218,4.1217,4.1221,4.1221,4.1222,4.1222,4.1204,4.1203,4.1202,4.1186,0,0,4.1198,4.1198,0,0,0,0,0,0,0,0,4.1248,4.1246,4.1232,4.1232,4.1232,4.1222,4.1221,4.1207,4.1221,4.1225,4.1222,4.1222,4.1209,4.1207,4.1204,4.1185,4.1185,4.1198,4.1198,4.1197,4.1197,0,0,0,0,0,0,0,4.1249,4.1247,4.1227,4.1232,4.1232,4.1232,4.123,4.1218,4.1215,4.1224,4.1225,4.1223,4.1209,4.1205,4.1203,4.1184,4.1198,4.1197,4.1197,4.1196,4.1153,4.1153,0,0,0,0,0,0,4.125,4.1247,4.1227,4.1226,4.1241,4.1231,4.1229,4.1224,4.1215,4.1214,4.1223,4.1223,4.1206,4.1205,4.1203,4.1184,4.1197,4.1196,4.1195,4.1154,4.1153,4.1153,0,0,0,0,0,0,4.1251,4.1248,4.1228,4.1237,4.1234,4.123,4.1224,4.1224,4.122,4.1214,4.1213,4.1219,4.1207,4.1204,4.1191,4.1184,4.1196,4.1195,4.1154,4.1154,4.1153,4.1147,0,0,0,0,0,0,4.1252,4.1249,4.1243,4.1237,4.1234,4.1217,4.1224,4.1223,4.1218,4.1219,4.121,4.1209,4.1207,4.1192,4.119,4.1182,4.1194,4.1155,4.1154,4.1153,4.1148,4.1147,4.1145,0,0,0,0,0,4.1253,4.1241,4.1243,4.124,4.1227,4.1216,4.1214,4.1213,4.1218,4.1212,4.1208,4.1209,4.1185,4.1191,4.1188,4.118,4.1155,4.1154,4.1153,4.1149,4.1147,4.1145,0,0,0,0,0,0,4.1246,4.124,4.1242,4.1229,4.1223,4.1217,4.1209,4.1211,4.1203,4.1204,4.1202,4.12,4.1186,4.1182,4.1188,4.1165,4.1171,4.1169,4.1168,4.1166,4.1165,4.1166,4.1193,0,0,0,0,0,4.1243,4.1235,4.1231,4.1219,4.1216,4.1214,4.1209,4.1209,4.1202,4.1199,4.1194,4.1187,4.1178,4.1172,4.1163,4.1148,4.1146,4.1141,4.1139,4.1138,4.1137,4.1128,4.1126,4.1149,4.1149,4.1149,0,0,4.1236,4.1232,4.1228,4.1218,4.1213,4.1205,4.1211,4.1202,4.1196,4.1198,4.1185,4.1181,4.1173,4.1159,4.1152,4.1155,4.113,4.1137,4.1136,4.1135,4.1127,4.1125,4.1123,4.1149,4.1149,4.1149,0,0,4.122,4.1217,4.1207,4.1203,4.1197,4.1195,4.1193,4.1187,4.1185,4.1172,4.1174,4.1166,4.115,4.1144,4.1139,4.1123,4.1123,4.112,4.1112,4.1104,4.1102,4.11,4.1094,4.1092,4.1118,4.1118,4.1118,0,4.1212,4.1201,4.1201,4.1193,4.1188,4.1191,4.1181,4.1176,4.1167,4.1164,4.1167,4.1148,4.1143,4.1127,4.1124,4.1119,4.1116,4.112,4.1102,4.1101,4.1099,4.1094,4.1091,4.1118,4.1118,4.1118,4.1118,0,4.1192,4.1184,4.1177,4.1169,4.1164,4.1154,4.1153,4.1147,4.1148,4.1146,4.1133,4.1127,4.1118,4.1114,4.1113,4.1098,4.11,4.1103,4.1109,4.1097,4.1091,4.1089,4.1117,4.1117,4.1117,4.1117,0,0,4.117,4.1164,4.1162,4.1159,4.1153,4.1146,4.1137,4.1128,4.1124,4.1117,4.1109,4.1097,4.1099,4.1094,4.1093,4.1086,4.1074,4.109,4.1089,4.1087,4.1057,4.1055,4.1052,4.1074,4.1074,4.1074,4.1058,0,4.1154,4.1138,4.1139,4.1124,4.1117,4.112,4.1112,4.1107,4.1105,4.1097,4.1094,4.1086,4.109,4.1087,4.108,4.1076,4.1067,4.1078,4.1066,4.1066,4.1068,4.105,4.1047,4.1032,4.1055,4.1055,4.1055,0,4.1132,4.1127,4.1112,4.1108,4.1105,4.1097,4.109,4.1084,4.1078,4.1077,4.1072,4.1072,4.1062,4.1068,4.1054,4.1061,4.1057,4.1054,4.1054,4.1052,4.1059,4.1048,4.1028,4.1025,4.1052,4.1052,4.1052,0,4.1118,4.1107,4.1097,4.1094,4.1089,4.1084,4.1081,4.1076,4.1072,4.1065,4.1062,4.1054,4.105,4.1043,4.1041,4.1046,4.1027,4.1033,4.1026,4.1026,4.1021,4.1022,4.1,4.1018,4.1018,4.1018,4.1019,0,4.11,4.109,4.1091,4.1084,4.1074,4.1075,4.1064,4.1062,4.1057,4.105,4.1052,4.1045,4.1043,4.1036,4.1034,4.1023,4.1021,4.1019,4.1019,4.1019,4.1019,4.1016,4.1017,4.1018,4.1018,4.1018,4.1018,0,4.1082,4.1082,4.1071,4.1068,4.1067,4.1059,4.1056,4.1049,4.1048,4.1039,4.1037,4.1034,4.1025,4.1023,4.1012,4.1012,4.0998,4.0999,4.1001,4.1,4.0993,4.0994,4.0968,4.0965,4.0986,4.0985,4.0985,0,4.107,4.1064,4.106,4.1056,4.1053,4.1047,4.1042,4.1043,4.1038,4.1032,4.1026,4.1018,4.1012,4.0998,4.0994,4.0986,4.0986,4.0978,4.0985,4.0986,4.0986,4.0987,4.0986,4.0977,4.0977,4.0976,4.0976,0,4.1049,4.105,4.1044,4.1039,4.1034,4.1029,4.1025,4.1021,4.1021,4.1015,4.1008,4.1003,4.0993,4.0985,4.0977,4.0973,4.0974,4.0974,4.0972,4.0972,4.0974,4.0973,4.0997,4.0975,4.0975,4.0975,4.0975,4.0975,4.1034,4.1029,4.1026,4.1019,4.1016,4.1012,4.1007,4.1005,4.0999,4.0992,4.0992,4.0983,4.0978,4.0968,4.0964,4.0957,4.0959,4.0956,4.0955,4.0954,4.0954,4.0975,4.0955,4.0955,4.0955,4.0956,4.0956,0,4.1014,4.1012,4.1007,4.1001,4.0996,4.0999,4.0995,4.099,4.0983,4.0979,4.0973,4.0964,4.0956,4.0953,4.0945,4.094,4.094,4.0938,4.0938,4.0937,4.0952,4.0955,4.0938,4.0938,4.0938,4.0938,4.0938,4.0938,4.1002,4.0993,4.0994,4.0983,4.0981,4.0974,4.0971,4.0967,4.0964,4.0954,4.0948,4.0947,4.0943,4.0935,4.0928,4.0927,4.0924,4.0922,4.0921,4.0935,4.0936,4.0938,4.0941,4.0921,4.0921,4.0907,4.0907,4.0907]}]]